Simultaneous Nadir Overpasses (SNOs) Predictions

Prediction of SNOs between FY3D and NOAA-19 Satellite Orbit:

Table of predicted SNOs for the next 14.0 days since TLE Epoch: 10/18/2023
Index Date (FY3D) Time (FY3D) Lat,Lon (FY3D) SZA (FY3D ) Date (NOAA-19) Time (NOAA-19) Lat,Lon (NOAA-19) SZA (NOAA-19 ) Distance(km) Time Diff (sec)
1 10/24/2023 20:07:29 -76.03, 53.06 92.17 10/24/2023 20:06:20 -76.04, 50.97 92.14 56.12 69
2 10/24/2023 20:58:21 76.31,-140.61 88.13 10/24/2023 20:57:16 76.31,-140.78 88.13 4.35 65
3 10/24/2023 21:49:07 -76.34, 26.59 91.83 10/24/2023 21:48:12 -76.33, 26.59 91.83 0.30 55
4 10/24/2023 22:39:53 76.34,-166.11 88.19 10/24/2023 22:39:14 76.34,-166.15 88.19 0.92 39
5 10/24/2023 23:30:39 -76.37, 1.09 91.78 10/24/2023 23:30:10 -76.37, 1.22 91.78 3.33 29
6 10/25/2023 00:21:25 76.37, 168.39 88.25 10/25/2023 00:21:12 76.37, 168.48 88.24 2.53 13
7 10/25/2023 01:12:10 -76.36, -24.24 91.76 10/25/2023 01:12:09 -76.35, -24.32 91.77 2.18 1
8 10/25/2023 02:02:56 76.36, 143.05 88.26 10/25/2023 02:03:11 76.36, 142.94 88.26 2.85 15
9 10/25/2023 02:53:42 -76.39, -49.74 91.71 10/25/2023 02:54:07 -76.38, -49.69 91.71 1.45 25
10 10/25/2023 03:44:28 76.39, 117.55 88.32 10/25/2023 03:45:09 76.39, 117.58 88.31 0.70 41
11 10/25/2023 04:35:13 -76.38, -75.08 91.69 10/25/2023 04:36:05 -76.41, -75.07 91.66 4.08 52
12 10/25/2023 05:26:00 76.43, 92.05 88.37 10/25/2023 05:27:07 76.42, 92.21 88.37 4.12 67
13 10/25/2023 06:16:49 -76.59,-101.26 91.45 10/25/2023 06:18:01 -76.53,-100.09 91.52 30.74 72



Historial Predications of SNOs between FY3D and NOAA-19
